Wind_Speed
10 9 8 8 8 6 6 5 3 5 4 4 4 5 5 4 4 5 5 4 7 7
11 9 8 7 6 6 5 4 6 5 4 5 6 6 7 7 7 7 6 6 7 8
10 8 8 6 5 5 4 4 8 6 5 5 7 8 7 7 8 8 8 6 8 10
10 8 6 5 4 4 3 4 5 6 6 7 7 8 9 9 10 12 11 11 12 11
9 8 5 4 5 5 4 4 5 5 6 7 8 9 8 8 9 10 11 12 11 12
10 4 4 4 5 5 5 7 7 6 6 7 9 9 7 8 10 10 10 10 9 9
10 8 4 4 5 4 3 3 4 5 7 7 9 8 8 9 9 9 8 7 6 5
12 9 5 4 4 3 3 3 2 3 4 6 9 9 10 9 8 7 6 5 3 2
8 8 8 7 5 3 2 1 2 3 5 7 10 9 8 8 7 5 3 2 2 4
14 11 9 7 5 2 0 2 3 4 6 7 9 8 7 9 6 3 2 2 3 3
16 12 10 4 4 2 1 3 5 5 5 7 8 8 9 10 5 2 2 3 3 1
14 11 7 8 6 3 0 2 4 6 6 6 7 9 8 11 4 1 1 3 4 1
14 10 8 7 6 4 1 2 5 7 6 6 6 7 6 9 5 2 6 8 6 5
11 8 9 8 7 3 1 2 6 7 4 3 4 5 6 6 5 3 8 7 7 6
Wind_Direction
162 168 149 145 139 143 129 108 50 20 9 14 2 0 355 9 11 358 346 342 332 309
159 152 150 139 135 124 113 70 11 354 24 20 359 353 351 348 349 346 339 330 324 310
155 151 147 132 133 124 93 35 27 19 29 16 5 349 355 345 337 330 327 317 311 310
155 154 150 142 129 127 84 33 18 21 14 11 3 2 4 4 358 348 338 325 315 307
150 152 154 152 139 121 84 39 30 20 26 16 5 1 4 2 334 332 327 323 315 308
151 149 158 168 148 135 93 59 45 36 28 12 1 352 351 340 330 330 324 323 316 311
154 170 169 169 166 165 142 77 68 46 20 360 348 347 348 339 329 328 331 327 321 321
161 156 148 191 182 173 196 232 38 29 11 1 350 356 346 325 327 328 350 348 334 338
158 154 162 167 146 115 192 23 22 1 353 5 358 345 331 326 342 356 3 13 33 49
167 161 162 155 102 136 75 29 10 357 359 356 349 346 332 350 359 0 13 53 59 60
166 161 158 136 160 167 95 16 4 357 340 325 338 347 347 350 339 360 47 66 56 70
163 160 146 159 170 167 129 9 347 338 327 311 330 357 349 339 345 338 74 106 68 110
165 151 155 174 172 170 163 2 340 318 318 308 328 359 343 353 11 82 115 90 83 81
156 158 178 179 177 169 108 324 338 331 318 306 306 349 6 359 360 108 122 104 100 94
Height
823 828 827 828 828 832 831 832 833 832 832 832 833 833 833 830 830 830 831 830 830 830
823 825 828 828 830 830 831 831 831 831 830 831 832 831 831 831 829 828 828 828 827 827
824 826 828 828 830 829 830 831 829 830 830 830 830 831 829 829 829 828 826 825 824 823
824 826 828 828 829 829 829 829 831 830 829 829 830 829 827 827 827 826 825 824 821 821
824 826 827 829 828 829 829 830 829 829 828 829 829 828 826 826 827 825 823 822 820 819
823 827 827 829 828 829 829 829 828 829 828 830 829 828 826 825 826 823 821 820 818 817
820 825 827 829 829 829 829 829 829 828 829 829 828 826 825 824 823 820 819 818 816 815
820 823 824 829 829 828 828 829 827 827 827 827 827 824 825 824 821 819 816 816 814 815
821 822 826 828 827 827 828 827 826 826 826 824 824 824 825 822 818 815 815 815 814 813
819 822 825 826 824 827 827 826 825 825 823 823 825 824 823 818 815 814 814 813 812 812
817 819 821 821 824 825 825 825 824 823 823 824 824 822 819 816 815 813 813 812 812 812
814 817 818 820 822 823 824 823 823 823 823 823 822 819 817 815 813 812 812 811 812 813
813 815 818 820 821 822 822 822 822 821 821 820 820 819 817 814 812 812 812 814 814 815
812 814 818 819 820 819 820 820 820 819 819 819 819 818 816 814 814 814 814 816 817 818